This is the latest recevied weather packets stored in our database for station/object KI8L. If no packets are shown the sender has not sent any weather packets the latest 10 day(s).
| Time | Temp. | Humidity | Pressure | Rain* | Wind** | Luminosity | Snow |
|---|---|---|---|---|---|---|---|
| 1777483869 | 12.22° C | 99% | 1011.4 hPa | 0 mm | - | 75 W/m² | - |
| 1777483565 | 12.22° C | 99% | 1011.5 hPa | 0 mm | - | 97 W/m² | - |
| 1777483260 | 12.78° C | 99% | 1011.5 hPa | 0 mm | - | 71 W/m² | - |
| 1777482957 | 12.78° C | 99% | 1011.4 hPa | 1.78 mm | - | 61 W/m² | - |
| 1777482653 | 12.22° C | 99% | 1011.3 hPa | 1.78 mm | - | 43 W/m² | - |
| 1777482350 | 12.78° C | 99% | 1011.2 hPa | 0 mm | - | 43 W/m² | - |
| 1777482047 | 12.78° C | 99% | 1011.4 hPa | 1.78 mm | - | 45 W/m² | - |
| 1777481745 | 12.78° C | 99% | 1011.4 hPa | 1.78 mm | - | 55 W/m² | - |
| 1777481442 | 12.78° C | 99% | 1011.5 hPa | 0 mm | - | 88 W/m² | - |
| 1777481138 | 12.78° C | 99% | 1011.6 hPa | 0 mm | - | 93 W/m² | - |
| 1777480835 | 12.78° C | 99% | 1011.6 hPa | 0 mm | - | 123 W/m² | - |
| 1777480532 | 12.78° C | 99% | 1011.6 hPa | 0 mm | - | 175 W/m² | - |
| 1777480228 | 12.78° C | 99% | 1011.7 hPa | 0 mm | - | 156 W/m² | - |
| 1777479925 | 12.78° C | 99% | 1011.3 hPa | 0 mm | - | 207 W/m² | - |
| 1777479622 | 12.78° C | 99% | 1011.3 hPa | 0 mm | - | 244 W/m² | - |
| 1777479320 | 13.33° C | 99% | 1011.4 hPa | 0 mm | - | 197 W/m² | - |
| 1777479015 | 12.78° C | 99% | 1011.5 hPa | 0 mm | - | 224 W/m² | - |
| 1777478713 | 12.78° C | 99% | 1011.5 hPa | 0 mm | - | 306 W/m² | - |
| 1777478409 | 12.22° C | 99% | 1011.6 hPa | 0 mm | - | 241 W/m² | - |
| 1777478106 | 12.22° C | 99% | 1012 hPa | 1.27 mm | - | 225 W/m² | - |
| 1777477802 | 12.22° C | 99% | 1011.8 hPa | 3.05 mm | - | 185 W/m² | - |
| 1777477497 | 12.22° C | 99% | 1011.8 hPa | 3.05 mm | - | 82 W/m² | - |
| 1777477194 | 12.22° C | 99% | 1011.8 hPa | 4.32 mm | - | 76 W/m² | - |
| 1777476891 | 11.67° C | 99% | 1012.1 hPa | 4.83 mm | - | 42 W/m² | - |
| 1777476589 | 11.67° C | 99% | 1012.5 hPa | 4.32 mm | - | 25 W/m² | - |
* Rain latest hour (hover to see other rain measurements)
** Current wind speed in m/s (hover to see current wind gust speed)